User: anonymous   Login
Location: Gipe Farm
(40.9466°N, 95.5370°W)
Time: 07:07:17
(UTC-05:00)
Language:

Cosmos 1842 - Orbit

View from above orbital plane
View from above orbital plane
View from above satellite
View from above satellite

Ground track
Ground track

The orbit data is extracted from the following two-line orbital elements,

1 17911U 87038A   15210.37043987  .00002024  00000-0  12445-3 0  9992
2 17911 082.5200 146.3812 0013423 103.2406 257.0321 15.09442009537821
Epoch (UTC): 29 July 2015 08:53:26
Eccentricity: 0.0013423
inclination: 82.5200°
perigee height: 528 km
apogee height: 547 km
right ascension of ascending node: 146.3812°
argument of perigee: 103.2406°
revolutions per day: 15.09442009
mean anomaly at epoch: 257.0321°
orbit number at epoch: 53782

The dashed part of the orbit path shows where the satellite is in the earth's shadow,  

DLR